TimeMDT,TemperatureF,Dew PointF,Humidity,Sea Level PressureIn,VisibilityMPH,Wind Direction,Wind SpeedMPH,Gust SpeedMPH,PrecipitationIn,Events,Conditions,WindDirDegrees,DateUTC
12:53 AM,64.0,51.1,63,30.10,10.0,ESE,8.1,-,N/A,,Partly Cloudy,120,2013-07-01 06:53:00
1:53 AM,64.0,51.1,63,30.12,10.0,ESE,10.4,-,N/A,,Overcast,120,2013-07-01 07:53:00
2:53 AM,64.0,51.1,63,30.11,10.0,East,8.1,-,N/A,,Mostly Cloudy,100,2013-07-01 08:53:00
3:53 AM,62.1,51.1,67,30.10,10.0,ESE,10.4,-,N/A,,Partly Cloudy,110,2013-07-01 09:53:00
4:53 AM,62.1,52.0,70,30.14,10.0,East,16.1,-,N/A,,Mostly Cloudy,100,2013-07-01 10:53:00
5:49 AM,62.6,53.6,72,30.28,6.0,SSE,13.8,18.4,0.00,Rain-Thunderstorm,Light Thunderstorms and Rain,160,2013-07-01 11:49:00
5:53 AM,61.0,55.0,81,30.14,4.0,SSE,15.0,18.4,0.06,Rain-Thunderstorm,Thunderstorms and Rain,160,2013-07-01 11:53:00
6:27 AM,60.8,57.2,88,30.28,10.0,SSE,9.2,-,0.01,,Overcast,160,2013-07-01 12:27:00
6:53 AM,61.0,57.0,87,30.16,10.0,SE,6.9,-,0.01,,Overcast,140,2013-07-01 12:53:00
7:53 AM,62.1,57.9,86,30.17,10.0,ESE,9.2,-,N/A,,Overcast,120,2013-07-01 13:53:00
8:53 AM,63.0,57.9,84,30.19,10.0,ESE,5.8,-,N/A,,Overcast,110,2013-07-01 14:53:00
9:53 AM,71.1,57.9,63,30.17,10.0,ESE,9.2,-,N/A,,Mostly Cloudy,110,2013-07-01 15:53:00
10:53 AM,73.9,57.0,55,30.17,10.0,SE,10.4,16.1,N/A,,Overcast,130,2013-07-01 16:53:00
11:53 AM,77.0,57.0,50,30.15,10.0,SE,9.2,-,N/A,,Partly Cloudy,130,2013-07-01 17:53:00
12:53 PM,77.0,55.0,47,30.15,10.0,SE,11.5,16.1,N/A,,Mostly Cloudy,130,2013-07-01 18:53:00
1:53 PM,81.0,54.0,39,30.13,10.0,ESE,10.4,-,N/A,,Partly Cloudy,110,2013-07-01 19:53:00
2:53 PM,82.0,53.1,37,30.12,10.0,SE,11.5,20.7,N/A,,Partly Cloudy,140,2013-07-01 20:53:00
3:53 PM,81.0,52.0,36,30.11,10.0,ESE,11.5,-,N/A,,Mostly Cloudy,120,2013-07-01 21:53:00
4:53 PM,78.1,52.0,40,30.12,10.0,East,11.5,-,N/A,,Overcast,90,2013-07-01 22:53:00
5:53 PM,79.0,55.0,44,30.11,10.0,ESE,17.3,-,N/A,,Partly Cloudy,110,2013-07-01 23:53:00
6:53 PM,73.9,51.1,45,30.13,10.0,ESE,12.7,20.7,N/A,,Clear,120,2013-07-02 00:53:00
7:53 PM,69.1,57.0,65,30.15,10.0,SE,9.2,-,0.01,Rain,Light Rain,140,2013-07-02 01:53:00
8:53 PM,66.9,57.0,70,30.15,10.0,ESE,5.8,-,0.00,,Partly Cloudy,120,2013-07-02 02:53:00
9:53 PM,64.0,57.0,78,30.15,10.0,SSE,6.9,-,N/A,,Clear,150,2013-07-02 03:53:00
10:53 PM,62.1,57.0,84,30.15,10.0,Calm,Calm,-,N/A,,Clear,0,2013-07-02 04:53:00
11:53 PM,63.0,57.9,84,30.15,10.0,East,4.6,-,N/A,,Mostly Cloudy,100,2013-07-02 05:53:00